Probability
0 0 0 0 0 0 0 0 0 0 0 0 13 13 13 13 13 13 10 0 3 3 6 6 3 0 0 0 0 0 0 0 0 0 0 0 0 0 0 0 0 0 0 0
0 0 0 0 0 0 0 0 3 6 0 10 10 13 10 10 6 6 10 0 0 0 0 0 0 0 0 0 0 0 0 0 0 0 0 0 0 0 0 0 0 0 0 0
0 0 0 0 0 0 0 0 0 0 6 16 10 10 6 6 6 6 3 0 0 0 0 3 3 0 0 0 0 0 0 0 0 0 0 0 0 0 0 0 0 0 0 0
0 0 0 0 0 0 0 3 6 13 16 13 13 13 10 6 6 6 3 3 0 0 0 3 3 3 0 0 0 0 0 0 0 0 0 0 0 0 0 3 0 0 0 0
0 0 0 0 0 0 0 3 10 16 10 10 13 3 3 3 6 6 3 3 3 0 0 0 0 0 0 0 0 0 0 0 0 0 0 0 0 0 0 0 0 0 0 0
0 0 0 0 0 0 3 10 6 13 13 13 6 6 3 3 3 3 3 3 3 0 0 0 3 0 0 0 0 0 0 0 0 0 0 0 3 3 0 0 0 0 0 0
0 0 0 0 0 0 0 10 6 6 6 6 3 3 0 0 0 3 3 0 0 0 0 0 3 0 0 0 0 0 0 0 0 0 3 3 0 0 0 0 0 0 0 0
0 0 3 0 0 0 6 6 3 6 6 6 6 0 0 0 0 0 0 0 0 0 0 0 0 0 0 0 0 0 0 0 0 0 0 0 0 0 0 0 0 0 0 0
6 3 3 6 6 3 6 3 3 6 6 6 3 0 0 0 0 0 0 0 0 0 0 0 0 0 0 0 0 0 0 0 0 0 0 0 3 3 0 0 0 0 0 0
3 3 0 0 3 0 3 3 3 3 3 3 0 0 0 0 0 0 0 0 0 0 0 0 0 0 0 0 0 0 0 0 0 0 0 3 3 0 0 0 0 0 0 0
3 0 0 0 0 3 3 3 3 3 3 3 0 0 0 0 0 0 0 0 0 0 0 0 0 0 0 0 0 0 0 0 0 0 0 0 0 0 0 0 0 0 0 0
3 3 0 0 3 3 3 3 3 3 0 0 0 0 0 0 0 0 0 0 0 0 0 0 0 0 0 0 0 0 0 0 0 0 0 0 0 0 0 0 0 0 0 0
3 3 0 3 3 3 3 0 0 0 0 0 0 0 0 0 0 0 0 0 0 0 0 0 0 0 0 0 0 0 0 0 0 0 0 0 0 0 0 0 0 0 0 0
0 0 0 3 3 3 0 0 0 0 0 0 0 0 0 0 0 0 0 0 0 0 0 0 0 0 0 0 0 0 0 0 0 0 0 0 0 0 0 0 0 0 0 0
3 3 3 3 3 0 0 0 0 0 0 0 0 0 0 0 0 0 0 0 0 0 0 0 0 0 0 0 0 0 0 0 0 0 0 0 0 0 0 0 0 0 0 0
3 0 3 3 0 0 0 0 0 0 0 0 0 0 0 0 0 0 0 0 0 0 0 0 0 0 0 0 0 0 0 0 0 0 0 0 0 0 0 0 0 0 0 0
3 3 3 0 0 0 0 0 0 0 0 0 0 0 0 0 0 0 0 0 0 0 0 0 0 0 0 0 0 0 0 0 0 0 0 0 0 0 0 0 0 0 0 0
3 3 3 0 0 0 0 0 0 0 0 0 0 0 0 0 0 0 0 0 0 0 0 0 0 0 0 0 0 0 0 0 0 0 0 0 0 0 0 0 0 0 0 0
3 3 0 0 0 0 0 0 0 0 0 0 0 0 0 0 0 0 0 0 0 0 0 0 0 0 0 0 0 0 0 0 0 0 0 0 0 0 0 0 0 0 0 0
3 0 0 0 0 0 0 0 0 0 0 0 0 0 0 0 0 0 0 0 0 0 0 0 0 0 0 0 0 0 0 0 0 0 0 0 0 0 0 0 0 0 0 0
0 0 0 0 0 0 0 0 0 0 0 0 0 0 0 0 0 0 0 0 0 0 0 0 0 0 0 0 0 0 0 0 0 0 0 0 0 0 0 0 0 0 0 0
0 0 0 0 0 0 0 0 0 0 0 0 0 0 0 0 0 0 0 0 0 0 0 0 0 0 0 0 0 0 0 0 0 0 0 0 0 0 0 0 0 0 0 0
0 0 0 0 0 0 0 0 0 0 0 0 0 0 0 3 0 0 0 0 0 0 0 0 0 0 0 0 0 0 0 0 0 0 0 0 0 0 0 0 0 0 0 0
0 0 0 0 0 0 0 0 0 0 0 0 0 0 0 0 0 0 0 0 0 0 0 0 0 0 0 0 0 0 0 0 0 0 0 0 0 0 0 0 0 0 0 0
0 0 0 0 0 0 0 0 0 0 0 0 0 0 0 0 0 0 0 0 0 0 0 0 0 0 0 0 0 0 0 0 0 0 0 0 0 0 0 0 0 0 0 0
3 0 0 3 6 6 0 0 0 0 0 0 0 0 0 0 0 0 0 0 0 0 0 0 0 0 0 0 0 0 0 0 0 0 0 0 0 0 0 0 0 0 0 0
3 6 10 0 0 0 0 0 0 0 0 0 0 0 0 0 0 0 0 0 0 0 0 0 0 0 0 0 0 0 0 0 0 0 0 0 0 0 0 0 0 0 0 0
Height
5803 5803 5804 5805 5805 5806 5805 5805 5804 5802 5800 5799 5797 5796 5794 5793 5791 5789 5786 5784 5782 5779 5777 5774 5772 5770 5768 5767 5765 5764 5763 5762 5761 5760 5759 5758 5757 5756 5755 5754 5754 5753 5752 5751
5801 5801 5802 5803 5803 5803 5803 5802 5801 5799 5798 5795 5793 5792 5790 5788 5786 5783 5781 5778 5775 5773 5770 5768 5766 5764 5762 5760 5759 5758 5756 5755 5754 5753 5752 5751 5750 5749 5748 5747 5746 5745 5745 5744
5798 5799 5800 5801 5801 5800 5800 5799 5798 5796 5795 5792 5790 5788 5786 5784 5781 5778 5775 5772 5769 5767 5765 5762 5760 5758 5756 5754 5753 5751 5750 5748 5747 5746 5745 5744 5743 5742 5741 5740 5739 5738 5737 5737
5797 5798 5799 5800 5798 5797 5797 5795 5794 5793 5791 5789 5787 5784 5781 5779 5776 5773 5770 5767 5764 5762 5759 5757 5754 5752 5750 5749 5747 5745 5744 5742 5741 5740 5738 5737 5736 5735 5734 5733 5732 5731 5730 5730
5796 5796 5796 5796 5796 5795 5794 5793 5791 5790 5788 5786 5783 5780 5777 5774 5771 5768 5765 5762 5759 5756 5754 5751 5749 5747 5745 5743 5741 5740 5738 5736 5735 5733 5732 5731 5730 5729 5728 5727 5726 5725 5724 5724
5794 5795 5794 5795 5794 5793 5793 5791 5789 5787 5785 5783 5780 5777 5774 5770 5767 5764 5760 5757 5754 5751 5748 5746 5744 5741 5739 5738 5736 5734 5733 5731 5730 5728 5727 5725 5724 5723 5722 5721 5720 5720 5719 5719
5793 5793 5793 5792 5792 5792 5791 5790 5787 5784 5782 5779 5776 5774 5771 5766 5763 5759 5756 5753 5749 5746 5744 5741 5739 5737 5735 5733 5732 5730 5728 5726 5725 5723 5722 5721 5719 5718 5717 5716 5716 5715 5715 5714
5792 5792 5793 5791 5791 5790 5789 5787 5785 5782 5780 5777 5774 5771 5767 5764 5760 5756 5752 5749 5746 5743 5740 5737 5735 5733 5731 5729 5728 5726 5724 5723 5721 5720 5718 5717 5716 5714 5713 5713 5712 5711 5711 5710
5792 5793 5791 5790 5790 5789 5787 5786 5784 5781 5778 5775 5772 5769 5766 5762 5758 5754 5750 5746 5743 5740 5737 5734 5732 5731 5729 5727 5725 5723 5722 5720 5719 5717 5716 5714 5713 5711 5710 5710 5709 5708 5708 5707
5791 5790 5790 5790 5789 5787 5786 5785 5783 5780 5777 5774 5771 5768 5764 5760 5756 5752 5748 5744 5741 5738 5735 5732 5730 5729 5727 5725 5723 5722 5720 5718 5717 5715 5714 5712 5711 5709 5708 5707 5707 5706 5706 5705
5790 5790 5790 5789 5788 5787 5786 5784 5782 5779 5777 5774 5771 5767 5763 5759 5755 5751 5747 5743 5740 5737 5734 5731 5730 5728 5726 5724 5723 5721 5719 5717 5716 5715 5713 5711 5710 5708 5707 5706 5706 5705 5704 5704
5790 5790 5790 5789 5788 5787 5785 5783 5781 5779 5776 5773 5770 5767 5763 5759 5755 5751 5747 5743 5740 5736 5734 5731 5729 5727 5726 5724 5723 5721 5719 5717 5716 5715 5713 5711 5710 5708 5707 5706 5705 5705 5704 5703
5789 5789 5789 5788 5787 5786 5785 5783 5781 5778 5776 5773 5770 5767 5763 5759 5755 5751 5747 5744 5741 5737 5734 5732 5730 5728 5726 5725 5723 5721 5720 5718 5716 5715 5714 5712 5710 5709 5708 5707 5706 5705 5705 5704
5789 5788 5788 5787 5787 5785 5784 5782 5780 5778 5776 5773 5770 5767 5764 5760 5756 5752 5749 5745 5742 5739 5736 5734 5731 5729 5728 5726 5724 5722 5721 5719 5717 5716 5715 5713 5712 5710 5709 5708 5707 5707 5706 5706
5788 5788 5788 5787 5786 5785 5784 5782 5780 5778 5776 5773 5771 5768 5765 5761 5758 5754 5751 5748 5744 5742 5739 5736 5734 5732 5730 5728 5726 5724 5722 5720 5719 5717 5716 5715 5713 5712 5711 5710 5709 5709 5709 5709
5789 5788 5788 5787 5786 5785 5783 5782 5780 5778 5776 5774 5771 5769 5766 5763 5760 5756 5753 5750 5747 5744 5741 5739 5736 5734 5732 5730 5728 5726 5724 5722 5721 5719 5718 5717 5715 5714 5713 5713 5712 5712 5712 5712
5790 5789 5788 5787 5786 5785 5783 5782 5780 5779 5777 5775 5773 5770 5767 5764 5762 5759 5756 5753 5750 5747 5744 5742 5739 5737 5735 5733 5731 5729 5727 5725 5723 5722 5721 5719 5718 5717 5716 5715 5715 5715 5715 5715
5791 5790 5789 5787 5786 5785 5784 5782 5781 5779 5778 5776 5774 5771 5769 5766 5764 5761 5758 5755 5753 5750 5747 5745 5743 5740 5738 5736 5734 5732 5730 5728 5726 5725 5723 5722 5721 5720 5720 5719 5719 5718 5718 5718
5792 5791 5790 5788 5787 5786 5784 5783 5782 5780 5779 5777 5775 5773 5770 5768 5766 5763 5760 5758 5755 5753 5751 5748 5746 5744 5742 5740 5737 5736 5734 5731 5730 5728 5726 5725 5725 5724 5723 5723 5722 5722 5722 5722
5792 5791 5790 5789 5788 5787 5786 5785 5783 5782 5780 5778 5776 5774 5772 5770 5767 5765 5763 5760 5758 5756 5754 5752 5749 5747 5745 5743 5741 5739 5737 5735 5733 5732 5730 5729 5729 5728 5727 5727 5726 5726 5726 5726
5793 5792 5792 5790 5789 5788 5787 5786 5785 5783 5781 5780 5778 5776 5774 5771 5769 5767 5765 5763 5761 5759 5756 5754 5752 5750 5748 5746 5744 5743 5741 5739 5737 5736 5735 5734 5733 5732 5731 5731 5730 5730 5730 5730
5795 5794 5793 5792 5791 5790 5788 5787 5786 5784 5783 5781 5779 5777 5775 5773 5771 5769 5767 5765 5763 5761 5759 5757 5755 5753 5751 5749 5748 5746 5744 5742 5741 5739 5738 5737 5736 5736 5735 5734 5734 5734 5734 5733
5795 5795 5794 5793 5792 5791 5789 5788 5787 5785 5784 5782 5780 5779 5777 5775 5773 5771 5769 5767 5765 5763 5761 5759 5758 5756 5754 5752 5750 5748 5747 5745 5744 5742 5741 5740 5739 5739 5738 5737 5737 5736 5736 5736
5796 5795 5795 5794 5793 5792 5790 5789 5787 5786 5784 5783 5781 5780 5778 5776 5774 5772 5770 5768 5766 5764 5763 5761 5759 5757 5756 5754 5752 5751 5749 5748 5746 5745 5743 5742 5741 5740 5740 5739 5739 5738 5738 5737
5796 5796 5795 5794 5793 5792 5791 5790 5788 5787 5785 5783 5782 5780 5778 5777 5775 5773 5771 5769 5767 5765 5763 5762 5760 5758 5756 5755 5753 5752 5750 5749 5747 5746 5745 5743 5742 5741 5741 5740 5739 5739 5738 5738
5796 5795 5795 5794 5793 5792 5791 5790 5788 5787 5785 5783 5782 5780 5778 5777 5775 5773 5771 5769 5767 5765 5763 5762 5760 5758 5756 5754 5753 5752 5750 5749 5747 5746 5745 5744 5742 5741 5740 5740 5739 5738 5737 5737
5795 5794 5794 5793 5792 5791 5790 5789 5787 5786 5784 5783 5781 5779 5778 5776 5774 5772 5770 5768 5766 5764 5762 5760 5759 5757 5755 5753 5752 5751 5749 5748 5746 5745 5743 5742 5741 5740 5739 5738 5737 5736 5735 5734
Wind_Speed
11 11 11 11 12 14 16 17 18 19 21 21 21 22 23 23 24 25 26 27 27 27 27 27 27 27 27 25 25 25 25 26 26 26 27 26 26 26 26 27 28 28 27 27
9 8 9 11 12 13 15 16 17 19 20 20 20 21 22 23 24 24 25 25 25 26 26 26 26 26 26 26 26 26 25 25 25 26 26 26 25 25 26 26 26 26 27 27
7 8 9 9 11 12 14 14 16 17 18 19 20 21 22 22 22 23 23 23 23 24 23 24 24 24 24 24 24 24 23 23 24 24 24 24 24 25 25 25 25 25 25 24
6 7 8 9 10 11 12 14 15 16 16 18 19 21 21 21 22 22 22 22 22 22 22 22 23 23 23 24 24 23 23 24 24 24 24 23 23 24 23 22 22 22 22 22
5 6 8 10 10 11 12 12 13 14 15 17 19 20 20 21 21 21 21 21 21 21 21 21 21 21 21 21 21 21 22 22 22 23 22 22 22 22 22 21 21 20 19 19
5 6 8 9 9 9 11 12 13 14 14 16 17 18 19 19 20 20 20 20 20 20 19 19 20 20 20 20 20 20 20 20 20 21 20 20 20 20 19 18 18 18 18 18
6 7 8 7 7 8 10 11 12 13 14 15 16 17 18 18 18 19 19 18 18 17 17 17 18 17 17 17 18 18 17 17 16 16 15 16 17 17 17 16 16 16 16 16
6 6 6 7 7 8 9 10 11 12 13 14 15 16 16 17 17 17 17 16 16 16 16 16 15 15 15 15 15 15 15 14 14 13 14 14 14 14 14 14 13 13 13 13
6 6 6 6 6 7 8 9 10 11 12 13 14 14 15 17 17 17 16 15 15 15 14 14 13 12 12 11 11 11 11 11 12 12 12 12 11 11 10 11 10 10 10 10
4 4 5 5 6 6 7 8 10 11 12 13 14 14 15 16 16 16 16 15 15 14 12 11 10 9 9 9 9 9 9 10 10 10 9 9 9 8 8 8 8 7 7 7
3 3 4 4 5 6 7 8 9 10 11 12 13 14 16 16 16 16 16 14 13 12 11 10 9 8 8 8 8 9 9 9 8 8 8 8 8 7 6 5 5 5 5 5
2 3 3 4 5 6 7 8 9 10 11 12 13 14 15 16 16 16 16 14 13 12 11 9 9 8 8 7 8 8 8 7 6 7 7 6 6 5 4 4 3 3 3 3
2 3 3 4 4 6 7 8 9 9 10 11 13 14 15 16 16 16 16 15 14 13 12 10 9 8 7 7 7 7 7 7 6 6 6 6 6 5 5 5 4 5 5 4
2 2 3 4 4 5 6 7 8 9 10 11 12 13 15 15 16 16 15 15 15 14 13 12 10 9 8 8 8 8 8 7 7 7 7 7 6 6 6 6 6 6 6 6
2 2 3 3 4 5 6 7 8 9 10 11 12 13 14 15 15 15 15 15 15 15 14 13 12 10 10 9 9 9 9 8 8 8 7 7 7 7 7 7 6 6 6 7
3 3 3 3 4 5 6 7 8 8 9 11 12 13 14 14 14 14 15 15 15 15 15 14 13 12 11 10 10 10 10 10 9 9 8 8 9 9 9 8 8 8 8 8
3 3 4 4 5 6 7 7 8 9 9 10 11 12 13 13 14 14 14 14 15 15 15 15 14 14 13 12 12 12 11 11 11 10 9 9 9 9 9 9 9 9 9 9
4 4 4 5 5 6 6 7 8 8 9 10 11 12 12 13 13 14 14 14 14 14 14 14 14 14 14 14 13 13 12 12 12 11 11 10 10 10 10 10 10 9 9 9
4 5 5 5 6 6 6 7 8 8 9 10 11 11 12 12 12 13 13 14 14 13 13 14 14 14 14 14 14 14 13 13 13 12 11 11 11 11 11 11 10 10 10 10
5 5 6 6 6 7 7 7 8 9 9 10 11 11 11 12 12 12 13 13 13 13 13 13 13 13 13 13 13 13 14 13 13 13 12 12 11 11 11 10 10 10 10 10
5 5 6 6 7 7 7 8 8 9 10 10 11 11 12 12 11 11 12 12 12 13 12 12 12 12 12 12 12 12 12 12 12 12 11 11 10 10 10 9 9 9 8 8
4 5 6 6 7 7 7 8 8 8 9 10 10 11 12 12 12 11 11 11 11 12 12 12 12 12 12 12 11 11 10 10 10 9 9 9 8 8 8 8 7 7 6 6
4 4 5 6 7 8 8 8 9 9 9 9 10 10 11 12 11 11 11 11 11 11 11 11 11 11 11 11 11 10 9 9 8 8 7 6 6 5 5 5 5 5 4 4
3 4 4 5 6 7 8 9 9 10 10 10 10 10 11 11 11 11 11 11 10 10 10 10 11 11 10 10 9 9 9 8 7 7 6 5 4 4 4 3 3 3 2 1
3 4 4 5 6 7 7 8 9 10 10 10 10 10 11 11 11 11 11 11 11 10 10 10 10 10 10 9 8 8 8 8 7 7 6 5 5 4 3 3 3 3 3 4
4 4 5 6 7 7 8 8 9 10 10 11 11 11 11 12 12 12 12 12 11 11 11 11 11 11 10 10 9 9 9 8 8 8 8 7 7 7 6 6 7 7 7 8
6 6 7 7 8 8 9 9 10 10 11 11 12 12 13 13 13 13 13 13 13 13 13 13 12 12 12 12 11 10 10 10 10 10 10 10 10 10 10 10 10 11 11 12
Wind_Direction
243 254 259 259 255 259 264 268 270 276 280 284 289 289 289 291 293 293 291 290 291 290 290 290 289 287 287 286 286 286 286 285 285 284 284 285 286 286 284 283 283 282 283 283
240 258 260 261 266 267 267 270 272 278 283 287 292 293 293 295 296 296 295 293 292 291 290 289 287 286 285 286 286 286 286 286 287 287 287 286 285 285 284 284 284 282 281 282
231 240 252 264 270 270 273 273 276 280 286 289 292 294 295 296 297 299 299 296 294 293 292 291 291 290 290 288 286 286 286 285 287 287 287 287 285 285 285 284 284 282 282 283
237 247 260 265 268 272 276 278 282 287 290 292 294 296 297 297 298 300 301 300 299 296 295 294 293 293 292 291 290 289 288 288 287 286 286 286 286 286 286 287 286 285 285 283
241 250 258 262 269 277 283 288 291 294 295 296 300 303 303 302 302 302 302 302 301 300 298 295 294 293 294 295 293 290 291 291 290 288 287 289 289 288 288 288 287 287 287 286
254 260 272 269 279 285 292 299 305 305 305 306 308 308 309 309 308 307 306 304 303 302 301 300 299 296 296 295 294 294 294 295 295 294 293 292 292 293 292 291 289 287 286 287
253 264 279 287 292 296 299 309 311 311 313 315 317 317 317 316 316 315 313 310 308 307 305 304 303 301 299 297 297 298 300 301 299 299 300 298 297 297 295 292 288 286 286 287
270 282 283 303 305 310 315 317 319 322 322 322 323 326 326 325 325 324 321 319 316 314 312 308 306 305 303 301 299 300 303 303 304 305 306 304 304 300 295 292 288 286 285 285
274 282 295 304 311 316 325 328 330 332 335 335 334 334 334 334 334 332 330 327 325 322 318 315 314 312 312 311 310 313 313 313 313 312 312 311 308 302 296 292 289 286 283 284
273 284 295 307 319 331 333 335 339 343 344 344 344 342 342 343 343 343 340 338 337 336 332 330 329 327 324 324 329 329 327 325 323 323 324 325 321 312 304 297 294 292 291 290
289 295 310 329 336 340 344 345 348 351 352 351 351 351 351 352 352 352 352 352 352 350 346 346 345 340 339 336 339 339 338 338 341 341 340 338 335 330 324 319 311 304 301 304
306 316 330 342 340 345 348 351 352 353 355 356 357 358 357 358 0 1 2 3 4 4 2 359 356 352 351 347 347 347 349 351 353 355 356 356 355 359 1 357 354 355 350 344
314 326 335 337 338 347 352 355 355 356 358 359 0 1 3 6 7 8 10 14 17 18 18 17 15 10 6 4 2 360 358 2 8 11 12 15 14 17 24 31 40 46 46 50
338 328 328 336 344 350 354 356 358 3 5 6 6 6 8 11 12 14 17 21 22 24 26 28 29 27 24 20 18 18 16 17 22 26 24 27 33 39 45 49 55 59 61 63
20 9 4 3 4 2 360 0 4 8 10 11 11 11 12 15 17 19 21 22 25 26 27 30 33 34 31 27 25 26 28 30 33 35 37 43 47 53 57 59 64 69 72 76
43 39 36 25 15 10 7 7 11 15 17 16 16 16 18 21 23 24 24 25 28 29 30 33 35 35 32 31 33 35 37 38 41 44 48 54 57 60 62 66 72 76 80 80
48 42 32 23 17 15 15 16 18 19 18 17 18 18 20 23 25 26 26 27 29 31 34 36 37 36 37 39 40 41 42 44 47 50 51 56 60 62 64 68 73 78 82 82
51 44 34 28 26 27 26 24 24 24 22 20 18 19 21 23 25 26 28 29 31 33 36 38 39 40 42 42 43 44 44 43 46 51 53 56 61 65 69 71 75 78 80 84
51 42 34 31 32 32 31 31 30 28 26 23 22 22 22 23 24 26 27 29 31 32 35 38 39 41 43 43 43 42 43 45 48 51 55 59 63 67 72 74 75 78 80 83
44 42 41 42 42 42 40 37 34 32 29 27 24 22 22 21 22 24 25 28 30 31 32 34 36 38 40 41 42 41 43 47 52 56 60 65 68 71 73 76 78 81 83 87
47 44 43 43 43 41 38 35 31 29 28 27 24 22 22 23 23 24 26 28 29 30 32 33 33 34 35 37 39 41 42 46 51 55 59 62 66 68 71 75 80 84 88 91
48 43 40 39 39 36 32 28 25 22 21 21 22 22 23 23 23 23 24 25 26 27 28 30 31 31 32 33 35 36 40 43 46 50 53 57 60 63 65 68 74 80 85 89
43 40 37 36 34 31 27 24 21 18 17 17 18 18 19 19 19 20 20 21 21 22 22 23 23 23 23 23 25 29 31 33 37 40 44 48 52 54 56 57 61 66 72 81
24 23 22 23 23 22 21 20 18 16 14 13 12 11 10 11 11 12 12 12 12 12 12 12 12 12 11 11 12 14 16 17 19 22 25 29 31 33 33 33 34 34 33 32
355 358 359 360 1 1 3 5 6 8 7 5 3 3 3 3 2 1 358 358 357 356 355 354 354 356 356 354 353 354 354 356 356 355 355 355 352 349 341 332 325 319 309 297
323 331 337 342 344 346 347 349 352 355 356 356 355 354 352 351 350 350 348 345 344 343 341 340 338 337 338 338 336 338 336 329 326 327 326 323 317 313 307 300 297 294 289 284
301 307 313 319 328 333 336 338 340 343 344 345 344 344 343 341 340 338 337 336 333 330 328 326 325 322 320 320 318 317 320 320 317 316 312 307 305 301 298 294 289 287 285 283